Location: Pallagorio
(39.3000°N, 16.9000°E)
Time: 18:01:53
(UTC+00:00)

Meteor 2-1 Rocket - Pass Details

Date: 24 January 2021
Orbit: 827 x 910 km, 81.3° (Epoch: 02 March)

Event Time Altitude Azimuth Distance (km) Brightness Sun altitude
Rises 16:32:27 0° 357° (N) 3,397 7.2 -6.0°
Reaches altitude 10° 16:35:00 10° 4° (N) 2,450 6.4 -6.4°
Maximum altitude 16:40:17 45° 76° (ENE) 1,115 4.4 -7.4°
Drops below altitude 10° 16:45:31 10° 149° (SSE) 2,423 6.5 -8.4°
Sets 16:48:00 0° 155° (SSE) 3,354 7.2 -8.8°
